AUA167 LOWW-EDDL

Flight info

Callsign AUA167
Flight time 1h 27m
Altitude 36000
Route BUWUT2B/16 BUWUT DCT DITIS DCT RAPET T843 VELIS DCT AMETU T852 EKSAK/N0425F260 T852 KULIX/N0413F240 T852 TINSA T854 DOMUX DOMUX1A
Aircraft A320/M-SDE3FGHIRWY/LB1

Departure

Time 2026-05-04 18:34
Airport Vienna International Airport (LOWW)

Arrival

Time 2026-05-04 20:01
Airport Düsseldorf Airport (EDDL)
Time Latitude Longitude Altitude Speed Heading
2026-05-04 18:15 48.11714 16.56820 610 ft 0 kts 26°
2026-05-04 18:26 48.11694 16.56805 622 ft 4 kts 27°
2026-05-04 18:26 48.11670 16.56786 625 ft 4 kts 32°
2026-05-04 18:26 48.11649 16.56763 624 ft 4 kts 50°
2026-05-04 18:27 48.11640 16.56734 623 ft 3 kts 111°
2026-05-04 18:27 48.11641 16.56729 622 ft 1 kts 116°
2026-05-04 18:29 48.11640 16.56731 622 ft 0 kts 116°
2026-05-04 18:29 48.11635 16.56746 616 ft 4 kts 116°
2026-05-04 18:29 48.11610 16.56820 615 ft 11 kts 114°
2026-05-04 18:30 48.11527 16.57076 618 ft 15 kts 117°
2026-05-04 18:30 48.11481 16.57218 615 ft 15 kts 115°
2026-05-04 18:30 48.11438 16.57363 616 ft 15 kts 103°
2026-05-04 18:31 48.11498 16.57460 609 ft 13 kts 19°
2026-05-04 18:31 48.11582 16.57442 616 ft 12 kts 345°
2026-05-04 18:31 48.11656 16.57410 617 ft 11 kts 344°
2026-05-04 18:31 48.11723 16.57382 618 ft 9 kts 344°
2026-05-04 18:32 48.11781 16.57367 609 ft 8 kts 12°
2026-05-04 18:32 48.11812 16.57431 613 ft 12 kts 72°
2026-05-04 18:32 48.11866 16.57569 611 ft 17 kts 18°
2026-05-04 18:32 48.11971 16.57577 616 ft 14 kts 38°
2026-05-04 18:33 48.11972 16.57726 612 ft 18 kts 103°
2026-05-04 18:33 48.11884 16.57858 618 ft 21 kts 161°
2026-05-04 18:33 48.11582 16.57987 612 ft 79 kts 164°
2026-05-04 18:33 48.10854 16.58294 618 ft 136 kts 164°
2026-05-04 18:34 48.09821 16.58720 910 ft 156 kts 164°
2026-05-04 18:34 48.08763 16.59155 1597 ft 159 kts 166°
2026-05-04 18:34 48.07678 16.59641 2210 ft 169 kts 166°
2026-05-04 18:34 48.06488 16.60201 2558 ft 192 kts 161°
2026-05-04 18:35 48.05359 16.61385 3157 ft 208 kts 136°
2026-05-04 18:35 48.04643 16.63328 3928 ft 221 kts 111°
2026-05-04 18:35 48.04555 16.65672 4671 ft 237 kts 83°
2026-05-04 18:35 48.05261 16.67952 5342 ft 247 kts 49°
2026-05-04 18:36 48.06567 16.69673 6061 ft 258 kts 38°
2026-05-04 18:36 48.08058 16.71369 6495 ft 281 kts 36°
2026-05-04 18:36 48.09697 16.73129 7074 ft 295 kts 36°
2026-05-04 18:36 48.11382 16.74909 7944 ft 298 kts 35°
2026-05-04 18:37 48.13092 16.76690 8826 ft 301 kts 33°
2026-05-04 18:37 48.14978 16.78074 9731 ft 304 kts 17°
2026-05-04 18:37 48.16354 16.78488 10230 ft 308 kts
2026-05-04 18:37 48.18534 16.78108 10566 ft 327 kts 338°
2026-05-04 18:38 48.20510 16.76275 10821 ft 345 kts 312°
2026-05-04 18:38 48.21930 16.73330 11300 ft 354 kts 300°
2026-05-04 18:38 48.23264 16.70183 12046 ft 359 kts 300°
2026-05-04 18:38 48.24622 16.67022 12826 ft 363 kts 300°
2026-05-04 18:39 48.26004 16.63825 13577 ft 367 kts 300°
2026-05-04 18:39 48.27397 16.60604 14255 ft 370 kts 300°
2026-05-04 18:39 48.28806 16.57346 14916 ft 373 kts 300°
2026-05-04 18:39 48.30224 16.54062 15581 ft 376 kts 300°
2026-05-04 18:40 48.31651 16.50749 16240 ft 379 kts 300°
2026-05-04 18:40 48.33087 16.47403 16882 ft 382 kts 300°
2026-05-04 18:40 48.34531 16.44028 17520 ft 385 kts 300°
2026-05-04 18:40 48.35983 16.40630 18169 ft 388 kts 300°
2026-05-04 18:41 48.37448 16.37195 18734 ft 391 kts 300°
2026-05-04 18:41 48.38922 16.33735 19294 ft 394 kts 301°
2026-05-04 18:41 48.40403 16.30256 19870 ft 397 kts 301°
2026-05-04 18:41 48.41902 16.26738 20438 ft 400 kts 301°
2026-05-04 18:42 48.43407 16.23201 20993 ft 402 kts 301°
2026-05-04 18:42 48.44919 16.19644 21537 ft 404 kts 301°
2026-05-04 18:42 48.46436 16.16067 22074 ft 407 kts 301°
2026-05-04 18:42 48.47966 16.12454 22562 ft 410 kts 301°
2026-05-04 18:43 48.49502 16.08818 23036 ft 413 kts 301°
2026-05-04 18:43 48.51046 16.05151 23516 ft 415 kts 301°
2026-05-04 18:43 48.52599 16.01463 23907 ft 418 kts 301°
2026-05-04 18:43 48.54161 15.97753 24302 ft 420 kts 301°
2026-05-04 18:44 48.55729 15.94030 24690 ft 422 kts 301°
2026-05-04 18:44 48.56769 15.91554 24942 ft 423 kts 301°
2026-05-04 18:44 48.58883 15.86515 25448 ft 425 kts 301°
2026-05-04 18:44 48.60465 15.82738 25824 ft 427 kts 301°
2026-05-04 18:45 48.62057 15.78934 26193 ft 428 kts 301°
2026-05-04 18:45 48.63646 15.75125 26561 ft 430 kts 301°
2026-05-04 18:45 48.65245 15.71292 26922 ft 432 kts 301°
2026-05-04 18:45 48.66846 15.67447 27266 ft 433 kts 301°
2026-05-04 18:46 48.68447 15.63590 27608 ft 435 kts 301°
2026-05-04 18:46 48.70064 15.59689 27960 ft 436 kts 301°
2026-05-04 18:46 48.71673 15.55801 28274 ft 438 kts 301°
2026-05-04 18:46 48.73292 15.51884 28582 ft 439 kts 301°
2026-05-04 18:47 48.74916 15.47957 28874 ft 441 kts 301°
2026-05-04 18:47 48.76545 15.44014 29149 ft 442 kts 301°
2026-05-04 18:47 48.78177 15.40058 29419 ft 444 kts 301°
2026-05-04 18:47 48.79818 15.36075 29672 ft 445 kts 301°
2026-05-04 18:48 48.81454 15.32094 29900 ft 445 kts 300°
2026-05-04 18:48 48.84714 15.24120 30162 ft 444 kts 300°
2026-05-04 18:48 48.86337 15.20145 30488 ft 443 kts 300°
2026-05-04 18:49 48.87957 15.16183 30791 ft 441 kts 300°
2026-05-04 18:49 48.89576 15.12218 31093 ft 441 kts 300°
2026-05-04 18:49 48.91250 15.08328 31402 ft 440 kts 303°
2026-05-04 18:49 48.93037 15.04546 31685 ft 441 kts 304°
2026-05-04 18:50 48.94899 15.00830 31945 ft 442 kts 306°
2026-05-04 18:50 48.96784 14.97148 32243 ft 441 kts 306°
2026-05-04 18:50 48.98662 14.93460 32545 ft 440 kts 305°
2026-05-04 18:50 49.00515 14.89755 32861 ft 439 kts 304°
2026-05-04 18:51 49.02340 14.86042 33234 ft 436 kts 304°
2026-05-04 18:51 49.04139 14.82332 33575 ft 434 kts 304°
2026-05-04 18:51 49.05919 14.78626 33896 ft 433 kts 303°
2026-05-04 18:51 49.07693 14.74923 34181 ft 432 kts 303°
2026-05-04 18:52 49.09463 14.71234 34443 ft 431 kts 304°
2026-05-04 18:52 49.11239 14.67539 34639 ft 433 kts 303°
2026-05-04 18:52 49.13027 14.63825 34834 ft 434 kts 303°
2026-05-04 18:52 49.14820 14.60099 35059 ft 434 kts 303°
2026-05-04 18:53 49.16588 14.56415 35288 ft 433 kts 303°
2026-05-04 18:53 49.18368 14.52698 35524 ft 433 kts 303°
2026-05-04 18:53 49.20154 14.48966 35757 ft 432 kts 303°
2026-05-04 18:53 49.21930 14.45257 35905 ft 432 kts 303°
2026-05-04 18:54 49.23693 14.41569 35938 ft 433 kts 303°
2026-05-04 18:54 49.27243 14.34126 35954 ft 433 kts 303°
2026-05-04 18:55 49.30785 14.26667 35942 ft 434 kts 303°
2026-05-04 18:55 49.36086 14.15469 35942 ft 432 kts 303°
2026-05-04 18:56 49.39612 14.07996 35943 ft 432 kts 303°
2026-05-04 18:56 49.43140 14.00515 35946 ft 432 kts 303°
2026-05-04 18:57 49.46663 13.93016 35952 ft 433 kts 303°
2026-05-04 18:57 49.50183 13.85490 35952 ft 434 kts 303°
2026-05-04 18:58 49.53702 13.77950 35951 ft 434 kts 303°
2026-05-04 18:58 49.57219 13.70393 35952 ft 434 kts 302°
2026-05-04 18:59 49.60731 13.62826 35952 ft 434 kts 302°
2026-05-04 18:59 49.64236 13.55246 35969 ft 434 kts 302°
2026-05-04 19:00 49.67736 13.47672 35960 ft 433 kts 302°
2026-05-04 19:00 49.71224 13.40080 35956 ft 434 kts 302°
2026-05-04 19:01 49.74711 13.32470 35954 ft 434 kts 302°
2026-05-04 19:01 49.78198 13.24858 35952 ft 434 kts 302°
2026-05-04 19:02 49.81685 13.17225 35952 ft 434 kts 302°
2026-05-04 19:02 49.85158 13.09589 35956 ft 434 kts 302°
2026-05-04 19:03 49.88624 13.01933 35961 ft 434 kts 302°
2026-05-04 19:03 49.92087 12.94267 35959 ft 434 kts 302°
2026-05-04 19:04 49.95550 12.86598 35982 ft 433 kts 302°
2026-05-04 19:04 49.99003 12.78926 35996 ft 433 kts 301°
2026-05-04 19:05 50.02452 12.71246 35989 ft 433 kts 301°
2026-05-04 19:05 50.05888 12.63542 35988 ft 433 kts 301°
2026-05-04 19:06 50.09317 12.55837 35980 ft 433 kts 301°
2026-05-04 19:06 50.12751 12.48123 35981 ft 433 kts 301°
2026-05-04 19:07 50.16172 12.40398 35979 ft 433 kts 301°
2026-05-04 19:07 50.19131 12.32296 35965 ft 427 kts 287°
2026-05-04 19:08 50.20706 12.23408 35957 ft 425 kts 281°
2026-05-04 19:08 50.22114 12.14453 35966 ft 425 kts 281°
2026-05-04 19:09 50.23521 12.05485 35972 ft 425 kts 281°
2026-05-04 19:09 50.24914 11.96507 35989 ft 425 kts 281°
2026-05-04 19:10 50.26312 11.87522 35984 ft 426 kts 281°
2026-05-04 19:10 50.27713 11.78528 35985 ft 426 kts 281°
2026-05-04 19:11 50.29103 11.69527 35994 ft 425 kts 281°
2026-05-04 19:11 50.30472 11.60528 35993 ft 425 kts 281°
2026-05-04 19:12 50.32499 11.47031 35996 ft 425 kts 280°
2026-05-04 19:13 50.33833 11.38029 35988 ft 424 kts 280°
2026-05-04 19:13 50.35157 11.29019 35993 ft 425 kts 280°
2026-05-04 19:14 50.36477 11.20013 35989 ft 424 kts 280°
2026-05-04 19:14 50.37793 11.10999 36007 ft 424 kts 279°
2026-05-04 19:15 50.39101 11.01986 36005 ft 424 kts 279°
2026-05-04 19:15 50.40399 10.92963 36001 ft 424 kts 279°
2026-05-04 19:16 50.41693 10.83945 36003 ft 424 kts 279°
2026-05-04 19:16 50.42977 10.74916 36000 ft 424 kts 279°
2026-05-04 19:17 50.44257 10.65886 36006 ft 424 kts 279°
2026-05-04 19:17 50.45563 10.56848 36002 ft 425 kts 279°
2026-05-04 19:18 50.46650 10.49338 35995 ft 425 kts 280°
2026-05-04 19:18 50.48657 10.40553 35997 ft 429 kts 288°
2026-05-04 19:19 50.50833 10.31824 36002 ft 429 kts 287°
2026-05-04 19:19 50.52983 10.23074 36014 ft 429 kts 287°
2026-05-04 19:20 50.55127 10.14316 36004 ft 429 kts 287°
2026-05-04 19:20 50.57277 10.05549 35998 ft 430 kts 287°
2026-05-04 19:20 50.58351 10.01161 35894 ft 430 kts 287°
2026-05-04 19:21 50.59420 9.96778 35639 ft 429 kts 287°
2026-05-04 19:21 50.60485 9.92389 35389 ft 429 kts 287°
2026-05-04 19:21 50.61549 9.88003 35136 ft 429 kts 287°
2026-05-04 19:21 50.62615 9.83608 34887 ft 429 kts 287°
2026-05-04 19:22 50.63679 9.79218 34667 ft 430 kts 286°
2026-05-04 19:22 50.64746 9.74814 34428 ft 430 kts 286°
2026-05-04 19:22 50.65812 9.70413 34186 ft 430 kts 286°
2026-05-04 19:22 50.66872 9.66011 33980 ft 430 kts 286°
2026-05-04 19:23 50.67925 9.61605 33980 ft 430 kts 286°
2026-05-04 19:23 50.70032 9.52768 33983 ft 430 kts 286°
2026-05-04 19:24 50.72135 9.43922 33983 ft 430 kts 286°
2026-05-04 19:24 50.74236 9.35083 33986 ft 430 kts 285°
2026-05-04 19:25 50.76332 9.26247 33978 ft 429 kts 285°
2026-05-04 19:25 50.77363 9.21905 33975 ft 413 kts 285°
2026-05-04 19:25 50.78354 9.17728 33978 ft 401 kts 285°
2026-05-04 19:26 50.80273 9.09537 33983 ft 396 kts 284°
2026-05-04 19:26 50.82161 9.01369 33987 ft 395 kts 285°
2026-05-04 19:27 50.84748 8.93608 33960 ft 407 kts 301°
2026-05-04 19:27 50.86510 8.90036 33238 ft 414 kts 303°
2026-05-04 19:27 50.88306 8.86452 32433 ft 417 kts 303°
2026-05-04 19:27 50.90114 8.82845 31635 ft 418 kts 303°
2026-05-04 19:28 50.91903 8.79288 30869 ft 409 kts 303°
2026-05-04 19:28 50.93658 8.75799 30137 ft 401 kts 303°
2026-05-04 19:28 50.95377 8.72368 29296 ft 393 kts 303°
2026-05-04 19:28 50.97059 8.68991 28474 ft 386 kts 303°
2026-05-04 19:29 50.98707 8.65666 27665 ft 380 kts 303°
2026-05-04 19:29 51.00349 8.62418 26884 ft 376 kts 307°
2026-05-04 19:29 51.02194 8.59491 26237 ft 372 kts 315°
2026-05-04 19:29 51.04238 8.57015 26029 ft 364 kts 322°
2026-05-04 19:30 51.06325 8.54855 25974 ft 350 kts 322°
2026-05-04 19:30 51.08326 8.52785 25943 ft 337 kts 322°
2026-05-04 19:30 51.10268 8.50771 25664 ft 331 kts 322°
2026-05-04 19:30 51.12188 8.48775 25313 ft 328 kts 322°
2026-05-04 19:31 51.14092 8.46789 24961 ft 326 kts 322°
2026-05-04 19:31 51.15983 8.44815 24593 ft 324 kts 322°
2026-05-04 19:31 51.17860 8.42850 24232 ft 322 kts 322°
2026-05-04 19:31 51.19723 8.40900 23877 ft 320 kts 322°
2026-05-04 19:32 51.21581 8.38956 23528 ft 318 kts 322°
2026-05-04 19:32 51.23368 8.36914 23191 ft 312 kts 311°
2026-05-04 19:32 51.24658 8.34225 22913 ft 303 kts 291°
2026-05-04 19:32 51.25412 8.31113 22639 ft 300 kts 285°
2026-05-04 19:33 51.26101 8.27976 22369 ft 299 kts 285°
2026-05-04 19:33 51.26782 8.24846 22117 ft 298 kts 285°
2026-05-04 19:33 51.27456 8.21722 21853 ft 297 kts 285°
2026-05-04 19:33 51.28127 8.18602 21591 ft 296 kts 285°
2026-05-04 19:34 51.28793 8.15498 21332 ft 295 kts 285°
2026-05-04 19:34 51.29458 8.12408 21097 ft 294 kts 285°
2026-05-04 19:34 51.30127 8.09305 20843 ft 295 kts 285°
2026-05-04 19:34 51.30792 8.06215 20590 ft 294 kts 285°
2026-05-04 19:35 51.31458 8.03130 20339 ft 293 kts 285°
2026-05-04 19:35 51.32119 8.00051 20094 ft 292 kts 285°
2026-05-04 19:35 51.32777 7.96979 19845 ft 292 kts 285°
2026-05-04 19:35 51.33434 7.93916 19597 ft 291 kts 285°
2026-05-04 19:36 51.34091 7.90863 19354 ft 290 kts 285°
2026-05-04 19:36 51.34746 7.87813 19109 ft 289 kts 285°
2026-05-04 19:36 51.35396 7.84773 18874 ft 289 kts 284°
2026-05-04 19:36 51.36041 7.81736 18646 ft 288 kts 284°
2026-05-04 19:37 51.36686 7.78708 18403 ft 287 kts 284°
2026-05-04 19:37 51.37327 7.75692 18150 ft 286 kts 284°
2026-05-04 19:37 51.37976 7.72632 17876 ft 286 kts 284°
2026-05-04 19:37 51.38604 7.69668 17611 ft 284 kts 284°
2026-05-04 19:38 51.39245 7.66635 17350 ft 284 kts 285°
2026-05-04 19:38 51.39870 7.63675 17091 ft 284 kts 285°
2026-05-04 19:38 51.40511 7.60634 16749 ft 285 kts 285°
2026-05-04 19:38 51.41055 7.57638 16372 ft 284 kts 278°
2026-05-04 19:39 51.41328 7.54469 15983 ft 283 kts 270°
2026-05-04 19:39 51.41284 7.51370 15780 ft 274 kts 255°
2026-05-04 19:39 51.40574 7.48619 15542 ft 265 kts 236°
2026-05-04 19:39 51.39575 7.46144 15237 ft 264 kts 234°
2026-05-04 19:40 51.38544 7.43711 14943 ft 263 kts 233°
2026-05-04 19:40 51.37528 7.41329 14675 ft 262 kts 233°
2026-05-04 19:40 51.36501 7.38922 14425 ft 262 kts 233°
2026-05-04 19:40 51.35457 7.36498 14150 ft 261 kts 231°
2026-05-04 19:41 51.34301 7.34322 13896 ft 260 kts 231°
2026-05-04 19:41 51.33252 7.32002 13701 ft 256 kts 233°
2026-05-04 19:41 51.32244 7.29677 13455 ft 254 kts 233°
2026-05-04 19:41 51.31245 7.27356 13177 ft 252 kts 233°
2026-05-04 19:42 51.30243 7.25026 12945 ft 251 kts 233°
2026-05-04 19:42 51.29258 7.22732 12684 ft 249 kts 233°
2026-05-04 19:42 51.28281 7.20453 12388 ft 248 kts 233°
2026-05-04 19:42 51.27324 7.18219 12085 ft 246 kts 233°
2026-05-04 19:43 51.26350 7.15940 11805 ft 245 kts 233°
2026-05-04 19:43 51.25387 7.13680 11427 ft 247 kts 234°
2026-05-04 19:43 51.24755 7.11136 11102 ft 251 kts 262°
2026-05-04 19:43 51.24997 7.08376 10774 ft 256 kts 288°
2026-05-04 19:44 51.25733 7.05774 10413 ft 258 kts 292°
2026-05-04 19:44 51.26531 7.03247 10108 ft 258 kts 293°
2026-05-04 19:44 51.27354 7.00672 9798 ft 257 kts 293°
2026-05-04 19:44 51.28167 6.98139 9486 ft 255 kts 294°
2026-05-04 19:45 51.28972 6.95626 9182 ft 254 kts 293°
2026-05-04 19:45 51.29760 6.93156 8981 ft 252 kts 293°
2026-05-04 19:45 51.30567 6.90628 8967 ft 253 kts 293°
2026-05-04 19:45 51.31367 6.88124 8976 ft 254 kts 293°
2026-05-04 19:46 51.32169 6.85615 8975 ft 254 kts 293°
2026-05-04 19:46 51.32981 6.83101 8974 ft 254 kts 296°
2026-05-04 19:46 51.34175 6.81017 8974 ft 260 kts 326°
2026-05-04 19:46 51.35878 6.80079 8860 ft 263 kts 355°
2026-05-04 19:47 51.37685 6.80492 8486 ft 263 kts 19°
2026-05-04 19:47 51.39385 6.81539 8197 ft 260 kts 23°
2026-05-04 19:47 51.41047 6.82653 7913 ft 258 kts 23°
2026-05-04 19:47 51.42693 6.83793 7611 ft 257 kts 28°
2026-05-04 19:48 51.44065 6.85559 7314 ft 254 kts 50°
2026-05-04 19:48 51.45194 6.87726 7017 ft 253 kts 53°
2026-05-04 19:48 51.46287 6.89940 6733 ft 253 kts 53°
2026-05-04 19:48 51.47369 6.92152 6439 ft 252 kts 53°
2026-05-04 19:49 51.48452 6.94368 6166 ft 252 kts 53°
2026-05-04 19:49 51.49528 6.96566 6012 ft 251 kts 53°
2026-05-04 19:49 51.50600 6.98770 6012 ft 251 kts 53°
2026-05-04 19:49 51.51676 7.00980 6009 ft 251 kts 53°
2026-05-04 19:50 51.52748 7.03184 5916 ft 250 kts 53°
2026-05-04 19:50 51.53812 7.05379 5548 ft 249 kts 53°
2026-05-04 19:50 51.54871 7.07570 5191 ft 248 kts 53°
2026-05-04 19:50 51.55923 7.09754 4846 ft 247 kts 53°
2026-05-04 19:51 51.56967 7.11926 4495 ft 245 kts 53°
2026-05-04 19:51 51.58004 7.14090 4158 ft 243 kts 53°
2026-05-04 19:51 51.58848 7.16387 4012 ft 237 kts 77°
2026-05-04 19:51 51.58865 7.18979 3965 ft 232 kts 108°
2026-05-04 19:52 51.58061 7.21147 3616 ft 225 kts 141°
2026-05-04 19:52 51.56683 7.22199 3270 ft 221 kts 174°
2026-05-04 19:52 51.55192 7.21863 3031 ft 218 kts 199°
2026-05-04 19:52 51.53767 7.20945 3013 ft 223 kts 203°
2026-05-04 19:53 51.52342 7.19944 3011 ft 224 kts 203°
2026-05-04 19:53 51.50920 7.18934 3011 ft 224 kts 204°
2026-05-04 19:53 51.49491 7.17920 3015 ft 224 kts 204°
2026-05-04 19:53 51.48156 7.16658 3004 ft 224 kts 225°
2026-05-04 19:54 51.47174 7.14700 3020 ft 225 kts 233°
2026-05-04 19:54 51.46244 7.12683 3020 ft 225 kts 232°
2026-05-04 19:54 51.45307 7.10676 3008 ft 222 kts 232°
2026-05-04 19:54 51.44402 7.08748 3015 ft 210 kts 232°
2026-05-04 19:55 51.43545 7.06925 3010 ft 199 kts 232°
2026-05-04 19:55 51.42739 7.05213 3005 ft 185 kts 232°
2026-05-04 19:55 51.41983 7.03608 3011 ft 178 kts 231°
2026-05-04 19:55 51.41242 7.02037 3012 ft 176 kts 231°
2026-05-04 19:56 51.40507 7.00480 3018 ft 176 kts 231°
2026-05-04 19:56 51.39778 6.98932 3050 ft 167 kts 231°
2026-05-04 19:56 51.39326 6.97974 3027 ft 158 kts 230°
2026-05-04 19:56 51.38495 6.96215 2942 ft 143 kts 231°
2026-05-04 19:57 51.38101 6.95381 2842 ft 140 kts 231°
2026-05-04 19:57 51.37519 6.94152 2695 ft 139 kts 231°
2026-05-04 19:57 51.36940 6.92928 2515 ft 137 kts 231°
2026-05-04 19:57 51.36370 6.91722 2334 ft 135 kts 231°
2026-05-04 19:58 51.35805 6.90543 2129 ft 133 kts 231°
2026-05-04 19:58 51.35264 6.89341 1979 ft 130 kts 232°
2026-05-04 19:58 51.34740 6.88196 1805 ft 127 kts 230°
2026-05-04 19:58 51.34186 6.87054 1650 ft 134 kts 230°
2026-05-04 19:59 51.33610 6.85863 1557 ft 136 kts 230°
2026-05-04 19:59 51.33034 6.84647 1417 ft 134 kts 229°
2026-05-04 19:59 51.32470 6.83454 1166 ft 139 kts 229°
2026-05-04 19:59 51.31891 6.82212 952 ft 136 kts 230°
2026-05-04 20:00 51.31305 6.81008 734 ft 138 kts 230°
2026-05-04 20:00 51.30714 6.79796 515 ft 137 kts 229°
2026-05-04 20:00 51.30140 6.78584 332 ft 137 kts 229°
2026-05-04 20:00 51.29562 6.77367 148 ft 131 kts 231°
2026-05-04 20:01 51.29068 6.76343 137 ft 95 kts 232°
2026-05-04 20:01 51.28760 6.75699 133 ft 58 kts 232°
2026-05-04 20:01 51.28538 6.75226 134 ft 49 kts 233°
2026-05-04 20:01 51.28360 6.74964 132 ft 24 kts 176°
2026-05-04 20:02 51.28209 6.75056 136 ft 24 kts 151°
2026-05-04 20:02 51.28073 6.75162 135 ft 8 kts 155°
2026-05-04 20:02 51.28063 6.75170 134 ft 0 kts 153°
2026-05-04 20:03 51.28054 6.75177 134 ft 3 kts 152°
2026-05-04 20:03 51.27982 6.75240 127 ft 18 kts 154°
2026-05-04 20:04 51.27872 6.75325 136 ft 17 kts 154°
2026-05-04 20:04 51.27862 6.75333 136 ft 0 kts 153°
2026-05-04 20:04 51.27860 6.75334 136 ft 2 kts 153°
2026-05-04 20:04 51.27846 6.75385 136 ft 5 kts 65°
2026-05-04 20:05 51.27858 6.75436 136 ft 5 kts 71°
2026-05-04 20:05 51.27869 6.75479 136 ft 5 kts 63°
2026-05-04 20:05 51.27934 6.75616 137 ft 22 kts 51°
2026-05-04 20:05 51.27988 6.75792 137 ft 7 kts 117°
2026-05-04 20:06 51.27994 6.75851 137 ft 5 kts 71°
2026-05-04 20:06 51.27994 6.75899 137 ft 4 kts 91°
2026-05-04 20:06 51.27994 6.75924 137 ft 0 kts 92°
2026-05-04 20:06 51.27994 6.75925 137 ft 1 kts 91°
2026-05-04 20:07 51.27994 6.75934 137 ft 0 kts 90°